Weather History for KAGC - April, 2013

Change the Weather History Date:

Sunday, April 21, 2013

  Actual Average Record
Temperature  
Mean Temperature 41 °F -  
Max Temperature 53 °F 62 °F 80 °F (2014)
Min Temperature 30 °F 40 °F 30 °F (2013)
Degree Days  
Heating Degree Days 24    
Moisture  
Dew Point 20 °F    
Average Humidity 44    
Maximum Humidity 67    
Minimum Humidity 24    
Precipitation  
Precipitation 0.00 in - - ()
Sea Level Pressure  
Sea Level Pressure 30.52 in    
Wind  
Wind Speed 5 mph (ENE)    
Max Wind Speed 9 mph    
Max Gust Speed -    
Visibility 10 miles    
Events      
Averages and records for this station are not official NWS values.
T = Trace of Precipitation, MM = Missing Value Source: NWS Daily Summary

Daily Weather History Graph

Daily Weather History Graph

Search for Another Location

Airport or City:

Trip Planner

Search our weather history database for the weather conditions in past years. The results will help you decide how hot, cold, wet, or windy it might be!

Date:

Astronomy

Apr. 21, 2013 Rise Set
Actual Time 6:32 AM EDT 8:05 PM EDT
Civil Twilight 6:03 AM EDT 8:33 PM EDT
Nautical Twilight 5:29 AM EDT 9:08 PM EDT
Astronomical Twilight 4:52 AM EDT 9:45 PM EDT
Moon 3:48 PM EDT (4/21) 3:54 AM EDT (4/21)
Length of Visible Light 14h 30m
Length of Day
13h 32m
Waxing Gibbous, 79% of the Moon is Illuminated
Apr 21
Waxing Gibbous
Apr 25
Full
May 2
Last Quarter
May 9
New
May 18
First Quarter

Hourly Weather History & Observations

Time (EDT) Temp. Windchill Dew Point Humidity Pressure Visibility Wind Dir Wind Speed Gust Speed Precip Events Conditions
12:53 AM 34.0 °F 28.8 °F 24.1 °F 67% 30.44 in 10.0 mi North 5.8 mph - N/A   Clear
1:53 AM 34.0 °F 28.8 °F 21.9 °F 61% 30.45 in 10.0 mi North 5.8 mph - N/A   Clear
2:53 AM 33.1 °F 27.7 °F 21.9 °F 64% 30.46 in 10.0 mi North 5.8 mph - N/A   Clear
3:53 AM 32.0 °F 28.7 °F 21.9 °F 66% 30.48 in 10.0 mi North 3.5 mph - N/A   Clear
4:53 AM 32.0 °F 28.7 °F 21.0 °F 64% 30.50 in 10.0 mi NE 3.5 mph - N/A   Partly Cloudy
5:53 AM 32.0 °F - 21.9 °F 66% 30.52 in 10.0 mi Calm Calm - N/A   Clear
6:53 AM 30.9 °F 27.5 °F 21.0 °F 67% 30.56 in 10.0 mi East 3.5 mph - N/A   Clear
7:53 AM 33.1 °F 30.0 °F 23.0 °F 66% 30.59 in 10.0 mi Variable 3.5 mph - N/A   Clear
8:53 AM 36.0 °F 30.3 °F 23.0 °F 59% 30.61 in 10.0 mi Variable 6.9 mph - N/A   Clear
9:53 AM 37.9 °F 33.5 °F 21.9 °F 53% 30.61 in 10.0 mi ESE 5.8 mph - N/A   Clear
10:53 AM 42.1 °F 37.7 °F 19.9 °F 41% 30.61 in 10.0 mi Variable 6.9 mph - N/A   Clear
11:53 AM 44.1 °F 40.8 °F 19.0 °F 37% 30.60 in 10.0 mi Variable 5.8 mph - N/A   Clear
12:53 PM 46.0 °F 43.1 °F 19.0 °F 34% 30.58 in 10.0 mi Variable 5.8 mph - N/A   Clear
1:53 PM 48.0 °F - 19.0 °F 32% 30.56 in 10.0 mi SE 5.8 mph - N/A   Clear
2:53 PM 51.1 °F - 19.9 °F 29% 30.53 in 10.0 mi Variable 6.9 mph - N/A   Clear
3:53 PM 52.0 °F - 19.0 °F 27% 30.51 in 10.0 mi NE 8.1 mph - N/A   Clear
4:53 PM 52.0 °F - 18.0 °F 26% 30.49 in 10.0 mi Variable 5.8 mph - N/A   Clear
5:53 PM 52.0 °F - 16.0 °F 24% 30.48 in 10.0 mi Variable 6.9 mph - N/A   Clear
6:53 PM 52.0 °F - 19.0 °F 27% 30.48 in 10.0 mi East 9.2 mph - N/A   Clear
7:53 PM 50.0 °F - 17.1 °F 27% 30.47 in 10.0 mi NE 3.5 mph - N/A   Clear
8:53 PM 48.9 °F - 19.0 °F 31% 30.48 in 10.0 mi NE 3.5 mph - N/A   Clear
9:53 PM 48.0 °F - 19.0 °F 32% 30.49 in 10.0 mi ESE 6.9 mph - N/A   Clear
10:53 PM 46.0 °F 42.5 °F 18.0 °F 33% 30.48 in 10.0 mi ESE 6.9 mph - N/A   Clear
11:53 PM 46.0 °F 41.9 °F 19.9 °F 35% 30.48 in 10.0 mi SE 8.1 mph - N/A   Clear